Starlink 11294

operational
NORAD ID: 61054 Int'l Des: 2024-164 Owner: SPXS Country: US Constellation: starlink
LEOCIRCULAR

Starlink 11294について

説明を読み込み中...

リアルタイム位置

3D地球を読み込み中...

次回通過

高度履歴

Altitude vs Time

uPlot chart will show altitude changes over time

軌道要素

1 61054U 24164E 25352.96913412 -.00000337 00000-0 20830-5 0 9997
2 61054 53.1593 348.9868 0001399 93.2049 266.9129 15.69709561 72743
Epoch: Dec 18, 2025 • Age: 7 hours

現在のステータス

高度 376.3 km
速度 7.68 km/s
衛星直下点 -46.20°S, 34.29°E
打ち上げ日 Sep 13, 2024
運用期間 1.2 years
タイプ internet

技術仕様

分類 Payload
質量 960.00 kg
乾燥質量 910.00 kg
総質量 960.00 kg
長さ 0.30 m
直径 4.10 m
スパン 29.00 m
形状 Box + pan
製造者 SPXS
バスタイプ Starlink V2MD
フェーズステータス In Orbit
所有者/国 SPXS/US

大規模コンステレーション

Loading constellations...